This demonstration page uses our WeatherBlox Daily Observations layout. Learn more.

Left ArrowRight Arrow

39.12711, -84.51439

Hourly Observations for March 15, 2021

Temp ( °F °C ) Dew Point ( °F °C ) Humidity (%) Winds ( mph kmh ) Pressure ( in mb ) Visibility ( mi km ) Precip ( " mm )
12:53 am 00:53 Clear 43 6.1 15 -9.4 32 32 ENE 17 28 30.36 1028 10 16.0934 0 0
1:53 am 01:53 Clear 40 4.4 12 -11.1 32 32 NE 16 26 30.37 1029 10 16.0934 0 0
2:53 am 02:53 Clear 38 3.3 8 -13.3 29 29 NE 14 22 30.36 1028 10 16.0934 0 0
3:53 am 03:53 Clear 36 2.2 6 -14.4 28 28 ENE 14 22 30.36 1028 10 16.0934 0 0
4:53 am 04:53 Clear 35 1.7 10 -12.2 35 35 NE 12 19 30.35 1028 10 16.0934 0 0
5:53 am 05:53 Mostly Clear 35 1.7 12 -11.1 38 38 NE 12 19 30.32 1027 10 16.0934 0 0
6:53 am 06:53 Cloudy 35 1.7 11 -11.7 37 37 ENE 7 11 30.33 1027 10 16.0934 0 0
7:53 am 07:53 Cloudy 35 1.7 13 -10.6 40 40 ENE 13 20 30.32 1027 10 16.0934 0 0
8:53 am 08:53 Mostly Cloudy 35 1.7 14 -10 42 42 E 12 19 30.31 1026 10 16.0934 0 0
9:53 am 09:53 Cloudy 35 1.7 16 -8.9 46 46 NE 17 28 30.28 1026 10 16.0934 0 0
10:53 am 10:53 Cloudy 36 2.2 16 -8.9 44 44 ENE 12 19 30.29 1026 10 16.0934 0.001 0.001
11:53 am 11:53 Cloudy 39 3.9 15 -9.4 38 38 E 10 17 30.26 1025 10 16.0934 0 0
12:53 pm 12:53 Cloudy with Light Rain 37 2.8 17 -8.3 44 44 ENE 12 19 30.23 1024 10 16.0934 0.001 0.001
1:53 pm 13:53 Cloudy with Light Rain 36 2.2 25 -3.9 64 64 ENE 12 19 30.2 1023 10 16.0934 0.05 1.27
2:53 pm 14:53 Cloudy with Light Rain 36 2.2 27 -2.8 70 70 NE 8 13 30.17 1022 10 16.0934 0.03 0.762
3:53 pm 15:53 Cloudy with Heavy Rain 35 1.7 28 -2.2 76 76 E 8 13 30.12 1020 4 6.43736 0.06 1.524
4:53 pm 16:53 Cloudy with Light Rain 35 1.7 29 -1.7 78 78 ENE 10 17 30.11 1020 6 9.65604 0.09 2.286
5:53 pm 17:53 Cloudy with Light Rain 35 1.7 31 -0.6 85 85 E 7 11 30.11 1020 4 6.43736 0.09 2.286
6:53 pm 18:53 Cloudy 35 1.7 31 -0.6 85 85 VRB 6 9 30.09 1019 10 16.0934 0.01 0.254
7:50 pm 19:50 Cloudy 36 2 30 -1 81 81 E 7 11 30.08 1019 10 16.0934 0 0
7:53 pm 19:53 Cloudy 36 2.2 32 0 86 86 E 8 13 30.07 1018 10 16.0934 0 0
8:53 pm 20:53 Cloudy 37 2.8 32 0 82 82 E 5 7 30.05 1018 10 16.0934 0 0
9:53 pm 21:53 Partly Cloudy 37 2.8 32 0 82 82 Calm 30.04 1017 10 16.0934 0 0
10:35 pm 22:35 Cloudy 38 3.3 33 0.6 83 83 ENE 3 6 30.05 1018 10 16.0934 0 0
10:53 pm 22:53 Cloudy 38 3.3 33 0.6 83 83 Calm 30.03 1017 10 16.0934 0 0
11:53 pm 23:53 Cloudy 39 3.9 34 1.1 82 82 Calm 30.02 1017 10 16.0934 0 0

Powered by AerisWeather